Temperature
4 4 5 5 5 5 4 4 4 5 5 6 6 6 7 7 7 7 7 7 7 7 7 6 6 6 6 6 5 5 5 5 5 5 4 4 4 4 4 4 3 3 3 3
4 5 4 4 4 4 4 5 5 5 5 6 6 7 7 7 7 7 7 7 7 7 6 6 6 6 6 6 5 5 5 4 4 4 4 4 4 4 3 3 3 3 2 2
3 4 4 4 5 5 4 4 4 5 5 6 5 5 6 7 7 7 7 7 7 6 6 6 6 5 5 5 5 5 4 4 4 4 3 3 3 3 3 3 2 2 2 2
2 3 5 6 6 5 5 5 5 5 5 5 6 7 7 7 7 7 7 7 6 6 6 6 5 5 5 5 4 4 4 4 3 3 3 3 3 3 2 2 2 2 2 1
2 2 3 5 6 5 5 5 5 5 5 6 6 6 6 7 7 7 6 6 6 6 6 5 5 5 4 4 4 4 4 3 3 3 3 2 2 2 2 2 2 1 1 1
2 3 4 6 6 6 6 5 6 5 5 5 5 4 5 7 6 6 6 6 6 6 5 5 5 4 4 4 3 3 3 3 3 2 2 2 2 2 2 1 1 1 1 1
2 2 3 5 6 6 5 6 7 6 6 6 5 5 6 6 6 6 6 6 5 5 5 4 4 4 3 3 3 3 3 2 2 2 2 1 1 1 1 1 1 1 0 0
2 2 3 5 5 5 5 7 7 7 6 6 6 6 6 6 5 5 5 5 5 4 4 4 4 3 3 3 3 2 2 2 2 2 1 1 1 1 1 0 0 0 0 0
2 4 5 6 6 7 7 7 7 6 6 6 6 5 5 5 5 5 4 4 4 4 4 3 3 3 2 2 2 2 2 2 2 1 1 1 1 0 0 0 -0 -0 -0 -0
2 2 4 5 6 6 6 6 6 6 5 5 5 5 5 5 4 4 4 4 3 3 3 3 3 2 2 2 2 1 1 1 1 1 1 1 0 0 -0 -0 -0 -1 -1 -1
2 2 4 5 6 6 6 6 5 5 5 5 4 4 4 4 4 3 3 3 3 3 2 2 2 2 2 1 1 1 1 1 1 0 0 0 0 -0 -0 -0 -1 -1 -1 -1
3 4 3 5 5 5 5 5 5 4 4 4 4 4 3 3 3 3 3 3 2 2 2 2 2 2 1 1 1 1 1 0 0 0 -0 -0 -0 -0 -0 -1 -1 -1 -1 -2
5 5 5 5 4 4 4 4 4 4 4 3 3 3 3 3 3 3 2 2 2 2 2 2 1 1 1 1 0 0 0 0 -0 -0 -0 -0 -1 -1 -1 -1 -1 -1 -1 -2
4 4 4 4 4 4 3 3 3 3 3 3 3 3 2 2 2 2 2 2 2 2 1 1 1 1 1 0 0 -0 -0 -0 -0 -0 -1 -1 -1 -1 -1 -1 -1 -1 -2 -2
3 3 3 3 3 3 3 2 2 2 2 2 2 2 2 2 2 2 2 1 1 1 1 1 1 1 0 0 -0 -0 -0 -0 -1 -1 -1 -1 -1 -2 -2 -2 -2 -2 -2 -2
2 2 2 2 2 2 2 2 2 2 2 2 2 2 1 1 1 1 1 1 1 1 1 1 1 0 0 -0 -0 -0 -0 -1 -1 -1 -1 -1 -2 -2 -2 -2 -2 -2 -2 -3
1 1 1 1 1 1 1 1 1 1 1 1 1 1 1 1 1 1 1 1 1 0 0 0 0 -0 -0 -0 -0 -0 -1 -1 -1 -1 -1 -1 -2 -2 -2 -3 -3 -3 -3 -3
1 1 1 1 1 1 1 1 1 1 1 1 1 1 1 1 1 1 1 0 0 0 0 0 -0 -0 -0 -0 -1 -1 -1 -1 -1 -1 -2 -2 -2 -2 -3 -3 -3 -3 -3 -3
1 1 1 1 1 1 1 1 1 1 1 1 0 0 0 0 0 0 0 -0 -0 0 0 -0 -0 -0 -0 -1 -1 -1 -1 -1 -1 -2 -2 -2 -2 -3 -3 -3 -3 -3 -4 -4
1 1 1 1 1 1 1 1 1 1 1 0 0 0 0 0 -0 -0 -0 -0 -0 -0 -0 -1 -1 -1 -1 -1 -1 -1 -1 -2 -2 -2 -2 -2 -3 -3 -3 -3 -3 -4 -4 -4
1 0 0 0 0 0 0 1 1 1 1 0 0 -0 -0 -0 -0 -1 -1 -1 -0 -1 -1 -1 -1 -1 -1 -1 -2 -2 -2 -2 -2 -2 -2 -3 -3 -3 -3 -3 -4 -4 -4 -4
-0 -0 -0 -0 -0 0 0 0 0 0 0 0 -0 -0 -0 -0 -1 -1 -1 -1 -1 -1 -1 -1 -1 -1 -2 -2 -2 -2 -2 -2 -2 -2 -3 -3 -3 -3 -3 -4 -4 -4 -4 -5
-0 -1 -1 -0 -0 -0 -0 -0 -0 -0 -0 -0 -0 -1 -1 -1 -1 -1 -1 -1 -1 -2 -2 -2 -2 -2 -2 -2 -2 -2 -2 -2 -2 -3 -3 -3 -3 -3 -4 -4 -4 -4 -5 -5
-1 -1 -1 -1 -1 -1 -1 -0 -1 -1 -1 -1 -1 -1 -1 -1 -1 -1 -1 -1 -2 -2 -2 -2 -2 -2 -2 -2 -2 -2 -2 -3 -3 -3 -3 -3 -3 -3 -4 -4 -4 -4 -5 -5
-1 -1 -1 -1 -1 -1 -1 -1 -1 -1 -1 -1 -1 -1 -1 -1 -2 -1 -2 -2 -2 -2 -2 -2 -2 -2 -2 -2 -3 -3 -3 -3 -3 -3 -3 -3 -3 -4 -4 -4 -4 -5 -5 -5
-1 -2 -1 -1 -1 -1 -1 -1 -1 -1 -1 -1 -1 -1 -1 -2 -2 -2 -2 -2 -2 -2 -2 -2 -2 -3 -3 -3 -3 -3 -3 -3 -3 -4 -4 -4 -4 -4 -4 -4 -5 -5 -5 -5
-2 -2 -2 -2 -2 -2 -2 -2 -2 -2 -2 -2 -2 -2 -2 -2 -2 -2 -2 -2 -2 -3 -3 -3 -3 -3 -3 -3 -3 -3 -4 -4 -4 -4 -4 -4 -4 -4 -5 -5 -5 -5 -5 -5
Wind_Speed
8 9 7 9 11 9 11 10 9 9 9 11 8 7 7 6 5 4 5 5 4 4 5 5 5 5 5 5 4 4 4 5 6 5 4 4 4 4 4 4 4 3 3 3
6 6 7 10 13 12 13 11 12 12 13 10 7 5 5 6 5 5 6 6 5 5 5 5 5 5 5 5 5 4 5 5 5 4 4 5 5 4 4 4 4 3 3 4
5 6 6 8 10 10 7 8 9 13 11 6 4 6 7 6 6 7 7 6 6 6 6 6 6 5 6 6 4 4 5 5 5 4 5 5 5 4 4 4 4 4 4 4
3 4 6 7 3 5 7 8 9 8 6 6 7 6 6 6 6 7 6 6 6 5 5 5 5 5 4 4 4 4 5 5 5 5 5 5 4 5 5 4 4 4 5 5
2 4 8 9 4 3 5 6 6 9 8 5 3 2 5 5 5 6 6 6 5 5 5 4 5 4 3 3 3 4 5 5 5 5 5 5 5 6 5 4 4 4 4 4
3 4 7 7 3 1 1 5 4 4 5 4 2 2 6 5 4 5 5 4 4 4 3 4 4 3 3 4 4 5 6 6 5 5 5 6 6 6 4 4 5 5 5 5
7 7 9 8 3 2 2 5 3 4 5 5 6 7 5 4 4 5 5 5 4 4 4 4 4 3 4 4 6 6 5 5 4 5 5 6 5 4 4 4 4 4 5 5
6 7 9 5 4 5 7 4 3 4 4 5 6 6 5 5 5 5 5 5 4 4 5 4 3 3 4 6 6 4 4 4 4 4 4 4 4 4 4 4 4 4 4 5
10 10 6 4 6 5 4 5 5 5 5 5 5 6 6 6 6 6 6 5 4 4 5 5 4 4 6 7 5 4 4 4 4 4 4 4 4 5 3 4 4 4 4 5
7 10 9 8 7 7 6 7 7 6 6 6 7 7 7 6 6 6 6 6 5 4 5 6 5 5 6 6 4 4 4 5 4 4 4 4 4 4 4 4 5 5 5 5
8 9 9 7 6 7 6 6 6 6 6 7 7 8 7 7 7 6 6 5 4 5 6 7 6 5 5 4 4 4 5 5 4 4 4 4 4 5 6 6 6 6 6 5
11 10 8 8 7 7 7 8 8 8 7 7 7 8 8 7 7 6 6 5 5 6 6 7 6 6 5 4 4 5 5 5 4 4 4 4 4 5 7 8 9 10 8 6
13 11 10 10 9 8 9 9 8 8 9 9 7 7 7 7 6 6 6 6 6 7 7 6 6 6 5 4 4 5 6 5 4 4 4 4 4 4 5 5 7 8 9 9
11 9 10 10 10 8 8 8 8 8 7 7 6 6 6 6 6 6 7 7 6 6 6 6 6 7 6 4 4 5 5 6 5 4 4 4 4 5 4 4 4 4 6 9
10 10 11 10 8 8 7 6 6 7 6 6 5 6 6 6 7 7 7 6 5 6 6 6 6 7 5 4 5 5 5 4 4 4 4 4 4 4 4 5 5 4 4 5
8 7 7 8 9 8 7 6 7 8 7 7 6 7 7 7 7 7 6 5 5 6 6 6 7 7 4 4 4 4 5 6 5 4 4 4 4 4 4 5 5 5 5 4
6 7 7 8 8 8 8 8 8 8 7 7 8 7 6 5 5 6 6 5 5 6 6 6 7 6 5 5 5 4 4 5 6 4 4 4 4 5 5 5 5 5 5 6
7 8 7 7 8 8 8 7 7 7 7 8 7 5 5 6 6 7 6 5 4 5 6 6 6 5 5 5 5 4 4 4 4 4 4 4 4 4 5 5 6 6 5 5
6 7 7 7 7 7 7 7 7 6 6 5 5 6 6 6 6 6 5 4 5 7 7 5 6 5 5 6 5 3 4 4 4 4 4 6 5 4 5 5 5 5 5 5
6 6 6 6 6 5 6 7 6 5 5 4 5 5 6 6 5 5 4 5 6 6 5 6 5 5 5 5 5 3 4 4 4 4 4 4 4 5 5 5 5 5 5 5
6 6 6 6 6 6 6 6 5 6 6 5 5 6 7 6 5 4 4 6 6 5 5 6 4 4 4 4 5 3 4 4 4 4 4 5 5 5 5 5 5 5 5 5
6 5 6 6 6 7 6 5 5 5 6 6 6 6 6 6 5 5 6 6 6 6 4 4 4 5 5 5 3 4 4 4 4 4 4 4 5 5 5 5 5 5 5 4
6 6 6 6 6 7 7 6 5 5 6 7 7 7 7 6 5 5 6 5 4 6 5 4 6 7 7 4 3 4 4 5 5 4 5 5 5 5 5 5 5 5 4 4
7 7 7 6 6 6 7 8 7 6 6 7 7 7 7 6 5 5 6 7 7 8 5 6 8 9 7 3 3 4 4 4 5 4 4 5 5 5 5 5 5 4 4 5
8 8 7 7 7 7 8 7 7 6 6 6 7 7 6 6 6 6 5 6 7 7 5 6 9 8 5 3 4 4 4 5 4 4 4 4 4 5 5 4 4 4 4 4
8 8 8 8 8 7 6 6 6 6 6 6 6 5 5 4 5 5 5 5 6 7 5 4 5 5 4 4 4 4 4 5 5 5 4 4 4 4 4 4 5 5 4 5
8 8 7 7 7 7 6 6 7 7 7 7 7 6 5 5 5 5 5 5 5 5 4 4 4 4 4 4 4 4 4 4 4 4 4 4 4 4 5 5 5 4 4 4
Wind_Direction
256 262 253 249 248 228 217 213 219 242 244 257 253 252 253 255 258 262 258 251 248 249 250 255 259 258 253 252 248 232 225 232 237 235 226 223 225 226 227 230 237 238 249 262
281 270 259 263 254 238 232 228 236 254 267 263 252 238 251 254 251 254 255 253 256 258 254 253 253 255 256 252 248 230 225 235 239 233 226 225 226 223 224 233 236 237 244 253
278 307 320 272 242 216 212 212 207 232 245 257 249 245 245 245 242 246 253 257 259 257 253 251 250 246 245 248 249 236 234 237 236 231 231 231 226 220 227 231 228 237 243 246
282 334 260 249 253 204 217 240 221 232 244 238 235 248 250 235 233 246 250 254 258 256 255 256 251 248 249 246 242 240 241 242 240 236 237 233 223 226 231 229 230 238 244 245
229 267 278 291 274 195 206 265 234 232 246 249 249 308 286 247 231 238 245 248 249 246 248 252 256 249 243 245 247 248 250 247 241 232 236 232 230 233 230 227 236 239 244 244
203 237 252 258 277 232 120 277 261 212 230 232 171 284 272 258 248 257 256 252 249 251 255 258 261 245 234 247 249 252 252 250 243 229 228 233 235 234 228 224 235 240 247 243
218 239 263 261 258 122 187 257 278 241 240 227 218 233 255 270 267 262 259 257 253 251 255 254 252 234 242 251 253 255 255 251 244 234 232 236 237 234 231 228 233 240 248 252
196 219 252 240 153 188 231 265 271 267 256 242 246 256 263 263 261 264 267 266 258 254 264 263 242 226 248 257 260 260 251 248 247 243 240 240 234 237 230 220 230 243 250 264
201 220 248 216 214 240 240 256 266 261 258 244 249 258 262 259 259 263 262 261 258 251 262 266 243 224 244 262 262 253 247 251 254 252 244 235 228 231 231 222 228 243 247 260
248 261 263 266 261 264 258 254 265 261 257 244 249 258 265 266 263 262 263 260 260 257 261 267 257 242 244 257 249 237 246 255 255 252 254 245 233 225 225 227 232 241 247 256
256 270 286 271 254 261 267 263 266 267 258 249 249 257 259 265 265 261 263 261 252 250 256 262 262 256 255 249 233 238 249 255 255 250 250 249 241 232 231 230 229 234 238 240
250 251 250 265 265 265 264 265 264 264 264 253 244 254 260 262 262 259 260 260 260 258 258 263 261 261 259 243 226 233 252 253 249 249 250 246 249 261 252 247 253 249 250 250
251 263 260 267 269 264 260 264 262 260 258 261 257 248 252 260 260 257 259 260 258 259 260 262 262 263 259 243 229 232 243 249 249 246 245 246 244 249 269 273 259 257 257 260
254 260 269 269 269 269 263 264 268 268 263 255 257 258 255 258 260 261 260 260 260 262 262 259 260 262 257 241 233 238 243 247 245 242 241 240 239 240 244 254 272 274 267 265
257 252 255 267 272 273 272 276 280 278 274 271 263 259 257 258 263 265 266 265 264 263 262 259 259 265 260 240 234 238 242 246 243 241 242 241 240 241 244 247 254 266 276 276
269 269 263 264 268 273 276 273 270 271 272 272 271 266 260 258 262 268 268 259 254 261 264 262 263 267 256 239 239 243 244 247 243 242 242 240 236 239 245 247 251 253 257 264
266 276 276 277 276 274 267 260 257 263 269 268 267 268 266 265 270 272 272 263 254 259 262 259 263 266 250 236 233 243 248 252 248 245 238 237 236 238 242 245 250 254 256 257
244 254 259 261 267 271 271 267 262 262 262 262 266 265 261 257 261 268 274 278 278 278 272 261 258 257 253 246 240 241 242 247 242 242 243 242 244 241 241 245 250 255 263 264
266 264 266 265 265 265 266 268 266 263 265 263 258 259 260 259 258 263 268 269 271 279 281 270 264 259 257 251 242 235 236 244 248 247 243 251 254 245 243 247 252 254 255 257
277 275 273 275 274 263 265 270 269 271 270 260 258 265 269 266 261 261 261 263 258 257 266 271 267 261 255 249 238 231 231 238 245 250 244 242 247 250 248 250 253 254 255 254
290 287 284 285 287 283 272 267 265 271 275 262 252 257 264 269 264 256 259 272 273 261 262 265 261 258 253 248 239 233 231 237 241 243 243 244 246 250 251 251 253 255 254 254
291 288 287 289 289 291 287 275 263 265 273 272 265 260 262 268 267 262 254 255 269 272 272 263 260 259 257 254 239 235 237 239 241 240 241 242 244 250 252 252 252 254 254 252
278 277 280 282 279 282 287 282 269 263 264 265 263 258 257 259 256 258 274 268 262 269 271 265 263 265 266 258 241 237 239 240 240 239 240 242 244 246 249 250 251 252 252 252
274 274 274 275 277 280 283 282 277 269 264 265 261 255 252 261 268 253 250 264 269 272 270 269 271 271 267 255 246 245 244 243 242 240 240 242 244 244 245 248 251 251 249 248
269 270 271 272 273 271 269 273 277 274 271 271 267 259 248 239 247 261 259 260 266 272 273 274 274 272 263 248 247 249 248 245 244 239 238 243 244 244 245 244 246 249 247 246
263 263 262 258 258 263 265 265 267 267 266 271 274 265 255 248 247 255 260 261 261 268 269 269 269 265 254 248 249 249 247 253 256 248 240 241 243 245 248 247 246 247 248 247
265 263 265 269 265 255 251 251 256 261 258 258 268 267 258 254 252 252 255 260 264 265 264 263 259 254 251 250 251 247 245 244 242 241 241 241 242 244 247 246 247 247 247 246
Height
1522 1517 1517 1515 1513 1513 1514 1514 1515 1505 1501 1492 1490 1490 1488 1487 1487 1486 1485 1485 1484 1483 1482 1482 1481 1480 1479 1477 1476 1475 1474 1473 1473 1472 1472 1471 1470 1470 1469 1468 1467 1466 1465 1464
1519 1513 1513 1511 1505 1505 1505 1504 1503 1499 1494 1485 1485 1486 1485 1484 1484 1483 1482 1481 1480 1480 1479 1478 1477 1476 1475 1474 1473 1472 1470 1469 1469 1468 1467 1467 1466 1465 1465 1464 1463 1462 1461 1460
1522 1515 1511 1505 1495 1495 1496 1494 1494 1494 1487 1483 1484 1483 1481 1481 1480 1479 1478 1477 1477 1476 1475 1474 1474 1473 1471 1470 1469 1468 1466 1465 1464 1464 1463 1462 1462 1461 1460 1459 1459 1458 1457 1456
1523 1518 1511 1492 1485 1486 1487 1486 1485 1482 1480 1480 1480 1479 1478 1478 1477 1476 1475 1474 1473 1472 1471 1471 1470 1469 1467 1466 1465 1463 1462 1461 1460 1459 1458 1458 1457 1456 1456 1455 1454 1454 1453 1452
1523 1521 1507 1490 1483 1483 1485 1483 1478 1478 1477 1477 1477 1477 1475 1474 1474 1473 1472 1471 1470 1469 1468 1467 1465 1464 1463 1461 1460 1459 1457 1456 1456 1455 1453 1453 1452 1452 1451 1451 1450 1449 1448 1448
1521 1517 1507 1487 1481 1480 1482 1482 1475 1475 1474 1475 1475 1478 1473 1471 1470 1469 1469 1468 1466 1465 1464 1462 1461 1460 1458 1456 1455 1454 1453 1452 1451 1450 1449 1448 1448 1447 1447 1446 1445 1445 1444 1443
1517 1513 1499 1484 1480 1481 1487 1481 1474 1472 1472 1472 1472 1471 1469 1468 1467 1466 1465 1464 1463 1461 1459 1458 1457 1455 1453 1452 1451 1450 1448 1447 1446 1445 1444 1444 1443 1442 1442 1441 1441 1440 1439 1439
1510 1510 1498 1478 1479 1481 1478 1473 1472 1470 1470 1469 1467 1466 1465 1464 1463 1462 1461 1459 1458 1456 1454 1453 1452 1450 1448 1447 1446 1445 1443 1442 1441 1441 1440 1439 1438 1437 1437 1436 1435 1435 1434 1433
1494 1487 1477 1474 1473 1473 1472 1470 1469 1468 1467 1466 1464 1463 1461 1460 1459 1457 1456 1455 1453 1451 1449 1448 1447 1445 1443 1442 1441 1440 1438 1437 1436 1436 1435 1434 1433 1432 1432 1431 1430 1429 1429 1428
1486 1477 1473 1471 1470 1469 1469 1467 1466 1465 1463 1462 1460 1458 1457 1455 1454 1452 1451 1449 1448 1446 1444 1442 1441 1440 1439 1437 1436 1435 1433 1432 1431 1431 1430 1429 1428 1428 1427 1426 1425 1424 1423 1423
1479 1472 1469 1466 1466 1465 1464 1463 1462 1460 1459 1457 1455 1453 1452 1450 1448 1447 1445 1444 1442 1440 1438 1437 1436 1434 1433 1432 1431 1429 1428 1427 1426 1426 1425 1424 1423 1423 1422 1421 1420 1420 1419 1418
1470 1465 1465 1462 1461 1461 1459 1458 1456 1454 1452 1452 1450 1448 1446 1444 1443 1441 1440 1438 1436 1435 1433 1431 1430 1429 1428 1427 1426 1424 1423 1422 1421 1421 1420 1419 1418 1418 1417 1416 1415 1415 1414 1413
1461 1460 1459 1456 1455 1454 1453 1451 1450 1448 1446 1445 1444 1443 1441 1439 1437 1436 1434 1433 1431 1429 1427 1426 1424 1423 1422 1421 1420 1419 1418 1417 1416 1416 1415 1414 1413 1412 1411 1411 1410 1410 1409 1408
1456 1455 1452 1450 1449 1448 1447 1445 1443 1442 1440 1439 1438 1436 1435 1433 1431 1430 1429 1427 1426 1424 1422 1420 1419 1417 1417 1416 1415 1414 1413 1412 1411 1411 1410 1409 1408 1407 1406 1405 1405 1404 1404 1403
1449 1449 1447 1444 1443 1442 1440 1439 1437 1435 1434 1433 1432 1430 1429 1427 1425 1424 1423 1422 1420 1418 1417 1415 1413 1412 1412 1410 1409 1409 1408 1407 1406 1406 1405 1404 1403 1402 1402 1401 1400 1399 1398 1398
1443 1442 1441 1439 1437 1436 1435 1433 1432 1430 1428 1427 1426 1425 1423 1422 1420 1419 1418 1416 1415 1413 1411 1410 1408 1407 1407 1406 1405 1404 1403 1402 1402 1401 1400 1399 1398 1397 1397 1396 1395 1393 1393 1392
1439 1436 1435 1433 1432 1430 1429 1428 1426 1425 1423 1422 1420 1419 1418 1416 1415 1413 1412 1411 1409 1408 1407 1405 1403 1402 1402 1401 1400 1399 1398 1397 1397 1396 1395 1394 1393 1392 1392 1391 1390 1388 1388 1387
1434 1432 1431 1429 1427 1426 1424 1423 1421 1420 1418 1417 1416 1414 1413 1411 1409 1408 1407 1406 1404 1403 1402 1400 1399 1398 1397 1396 1395 1394 1393 1393 1392 1391 1390 1389 1388 1387 1387 1386 1385 1383 1383 1382
1429 1427 1426 1424 1423 1421 1419 1418 1417 1415 1414 1412 1411 1409 1408 1406 1405 1404 1402 1400 1399 1397 1396 1395 1394 1393 1392 1391 1390 1389 1389 1388 1387 1386 1385 1385 1384 1383 1382 1381 1380 1379 1378 1377
1425 1423 1421 1420 1418 1417 1415 1414 1413 1411 1410 1408 1407 1405 1403 1402 1401 1399 1397 1396 1394 1393 1392 1391 1389 1388 1387 1386 1385 1385 1384 1383 1382 1381 1380 1380 1379 1378 1377 1376 1375 1374 1373 1372
1421 1419 1417 1416 1414 1413 1412 1410 1409 1407 1406 1404 1403 1401 1399 1397 1396 1395 1392 1391 1390 1389 1387 1386 1384 1383 1382 1381 1381 1380 1379 1378 1378 1377 1376 1375 1374 1373 1372 1371 1370 1369 1368 1367
1417 1416 1414 1412 1410 1409 1408 1406 1405 1403 1402 1400 1398 1397 1395 1393 1392 1390 1388 1387 1385 1384 1382 1381 1379 1379 1378 1377 1376 1375 1374 1374 1373 1372 1371 1370 1369 1368 1367 1366 1365 1364 1363 1363
1414 1412 1410 1408 1407 1405 1403 1402 1401 1399 1397 1396 1394 1392 1391 1389 1387 1386 1384 1383 1381 1379 1377 1376 1375 1374 1373 1372 1371 1370 1370 1369 1368 1367 1366 1365 1365 1364 1363 1362 1361 1360 1359 1358
1409 1408 1406 1404 1402 1400 1398 1397 1395 1394 1393 1391 1389 1387 1386 1384 1382 1381 1379 1378 1376 1374 1373 1371 1370 1369 1368 1367 1366 1365 1365 1364 1363 1363 1362 1361 1360 1359 1358 1358 1357 1356 1355 1354
1404 1402 1400 1398 1396 1394 1393 1391 1389 1388 1386 1385 1383 1382 1381 1379 1378 1376 1374 1372 1371 1369 1368 1366 1365 1364 1363 1362 1361 1360 1360 1359 1358 1358 1357 1356 1356 1355 1354 1353 1353 1352 1351 1350
1397 1395 1394 1392 1390 1389 1387 1385 1383 1382 1380 1378 1377 1376 1375 1373 1372 1370 1369 1367 1366 1364 1363 1361 1360 1359 1358 1357 1356 1356 1355 1354 1354 1353 1352 1352 1351 1350 1350 1349 1348 1347 1347 1346
1390 1388 1386 1384 1383 1382 1380 1379 1377 1375 1374 1372 1371 1370 1369 1367 1366 1365 1364 1362 1361 1359 1358 1356 1355 1354 1353 1352 1351 1351 1350 1350 1349 1348 1348 1347 1346 1346 1345 1344 1344 1343 1342 1342